Location: Gloden
(48.4833°N, 15.3167°E)
Time: 17:28:45
(UTC+00:00)

Radarsat Rocket - Pass Details

Date: 15 December 2019
Orbit: 933 x 1492 km, 100.6° (Epoch: 28 January)

Event Time Altitude Azimuth Distance (km) Brightness Sun altitude
Rises 05:57:51 0° 13° (NNE) 3,708 6.9 -7.3°
Reaches altitude 10° 06:00:17 10° 8° (N) 2,804 6.2 -6.9°
Maximum altitude 06:06:17 50° 296° (WNW) 1,372 4.4 -6.1°
Drops below altitude 10° 06:12:59 10° 224° (SW) 3,123 6.5 -5.1°
Sets 06:15:50 0° 219° (SW) 4,167 7.2 -4.7°
